sat.trackr.live / text

‹ back to catalog

AVION KALUGA 650

NORAD 57195 · 2023-091AF

PAYLOAD ACTIVE UNKNOWN

§ Identity

Operator
Country
CIS
Launch date
2023-06-27
Launch site
VOSTO
Launch vehicle
Mass (kg)
RCS (m²)

External: N2YO · Heavens-Above · Gunter

§ Orbital elements

Epoch: 2026-09-21T21:12:24.698016Z

Period
94.66 min
Inclination
97.4991°
Eccentricity
0.0011383
Mean motion
15.21198239 rev/d
Perigee alt
494.4 km
Apogee alt
510.1 km
Semi-major
6,880.4 km
B*
1.4803e-4
RAAN
324.0716°
Arg perigee
128.0599°
Mean anomaly
232.1665°
Rev number
17,872

§ Raw data

AVION KALUGA 6501 57195U 23091AF  26264.88361919  .00003236  00000+0  14803-3 0  99992 57195  97.4991 324.0716 0011383 128.0599 232.1665 15.21198239178722

JSON: /api/v1/satellites/57195 · /tle

For live sub-satellite position, see the globe view (requires WebGL).

§ Visibility from observer

Set your observer location to see the next 7 days of passes ≥ 10°. The values pass through the URL so the page stays shareable.

No JS? Fill the form by hand. The geolocation button needs JavaScript.

§ Radio — SatNOGS DB

ModeDescriptionDownlinkUplink
AFSK Mode U - AFSK 1k2 435.715 MHz
AFSK Mode U - AFSk 1k2 435.615 MHz
DOKA Mode U - DOKA 9k6 435.615 MHz
DOKA Mode U - DOKA 9k6 435.715 MHz
GFSK Mode U - Transmitter 435.140 MHz

5 transmitters · refreshed weekly from db.satnogs.org